Tracking 35274 objects as of 12-Sep-2026
HD Live streaming from Space Station
objects crossing your sky now

FREGAT DEB


FREGAT DEB is no longer on orbit


NORAD ID: 47338
Int'l Code: 2011-037NV
Launch date: July 18, 2011
Source: Commonwealth of Independent States (former USSR) (CIS)
Launch site: TYURATAM MISSILE AND SPACE COMPLEX (TTMTR)
Decay date: 2022-02-27

Note: This is SATELLITE DEBRIS
Your satellite tracking list
Your tracking list is empty




NASA's NSSDC Master Catalog

Two Line Element Set (TLE):
1 47338U 11037NV  22043.63661950  .02104109  00000-0  42661+0 0  9999
2 47338  51.2393 165.8843 0397684 213.3725 144.1551 14.18404541 52881
Source of the keplerian elements: AFSPC